Wind_Speed
8 8 8 8 6 4 4 4 3 3 3 2 2 2 2 1 1 0 0 0 1 1 1 1 1 2 2 1 2 2 3 3 3 3 3 3 3 3 3 3 3 3 4
10 9 9 8 7 6 5 5 4 3 3 3 2 1 2 1 0 0 0 1 1 1 1 1 1 1 1 1 2 2 2 3 3 3 3 3 3 3 3 3 3 3 4
10 10 9 9 9 8 7 6 5 4 3 3 3 2 2 2 1 1 1 1 1 1 1 1 1 1 1 2 2 2 2 2 3 3 4 4 4 3 3 3 4 4 4
11 11 11 10 10 9 8 7 6 4 4 4 3 3 2 2 1 1 2 2 2 1 1 1 1 1 1 2 2 2 2 2 2 3 3 4 4 4 4 4 4 5 5
13 13 12 11 11 11 9 8 7 6 5 5 4 4 3 3 2 2 2 2 1 1 1 1 1 1 2 1 1 2 2 1 2 2 3 3 4 4 4 4 5 4 5
14 14 14 12 12 12 11 10 9 8 7 6 6 5 4 4 3 3 3 2 2 2 2 2 1 1 2 2 2 2 2 2 2 2 2 3 3 4 4 5 5 5 5
15 15 15 14 13 13 12 11 11 10 8 7 7 6 6 5 4 4 4 3 3 2 2 2 2 2 2 2 2 2 2 2 2 3 3 3 3 4 5 6 6 7 7
15 16 16 15 15 14 13 13 12 11 10 9 8 8 7 6 6 5 5 4 4 4 3 3 3 3 3 3 3 2 3 3 3 4 5 5 5 6 6 7 8 8 8
16 16 16 16 15 15 15 14 13 12 11 11 10 9 8 8 7 6 6 5 5 5 5 5 4 4 4 4 3 3 4 4 5 5 5 6 7 7 8 9 9 9 10
16 16 16 16 17 16 16 16 15 14 13 13 12 11 10 10 9 8 8 7 7 7 7 7 6 5 5 5 5 6 6 6 7 7 7 7 8 8 9 10 10 11 11
16 17 17 16 16 17 17 17 16 16 15 14 14 13 12 11 11 10 10 10 9 9 9 9 8 8 8 8 8 8 8 8 8 8 9 9 10 11 11 11 12 13 13
16 16 17 17 17 18 18 18 17 17 17 16 16 15 14 13 13 13 12 12 11 11 10 11 11 11 10 10 10 11 11 11 11 11 12 12 13 13 14 14 14 15 16
16 16 17 18 18 18 19 19 19 19 19 18 18 17 17 16 16 15 15 14 13 13 13 14 14 13 13 13 13 13 14 14 14 15 15 15 15 16 16 17 17 18 18
16 16 17 18 18 18 19 20 20 20 20 19 19 19 19 18 18 18 17 17 17 17 16 16 16 16 16 16 16 16 17 17 17 18 18 18 19 19 20 20 20 21 21
16 17 17 18 18 18 19 20 21 21 20 21 21 21 21 21 20 20 20 20 19 19 19 19 19 19 19 19 19 19 19 20 20 20 21 22 22 23 23 23 23 23 23
16 17 19 19 19 19 20 20 21 21 21 21 21 21 20 21 22 22 22 22 22 22 21 21 21 22 22 21 22 22 22 23 24 24 24 24 25 25 26 26 27 27 27
15 17 17 18 18 19 19 20 21 21 22 21 21 21 22 22 23 24 24 24 24 24 24 24 24 23 24 24 24 24 24 26 26 27 27 27 27 28 28 29 30 30 30
15 15 16 17 18 19 19 20 20 22 22 23 22 22 23 24 24 25 25 26 26 26 26 26 25 25 25 26 26 27 26 27 27 28 29 30 30 31 31 31 32 32 32
14 14 16 17 18 18 19 20 21 21 22 23 23 23 24 24 25 25 26 27 27 27 27 27 27 27 27 27 28 29 29 29 29 29 30 31 31 32 32 33 33 34 35
13 14 15 17 17 18 19 20 21 21 22 22 23 24 24 24 25 26 26 26 27 28 28 28 28 29 29 30 30 31 30 31 32 32 31 32 32 33 34 35 36 37 38
14 13 14 16 18 19 19 20 21 21 21 22 23 24 24 25 26 27 27 28 29 29 30 30 30 31 32 33 33 33 32 33 33 34 35 35 36 36 37 38 39 40 41
13 14 15 16 18 19 20 20 20 21 22 23 24 25 26 27 28 29 29 30 30 31 32 32 33 33 34 34 34 34 35 35 36 37 38 38 39 39 40 41 41 41 42
14 15 16 17 18 19 20 21 21 22 23 24 25 26 26 27 28 28 28 30 31 31 31 32 33 34 34 34 35 36 36 37 38 38 39 39 41 41 42 43 43 44 45
15 15 16 18 18 19 19 20 23 24 24 25 26 27 27 28 28 28 28 29 29 30 32 33 34 35 35 36 37 37 37 38 39 41 42 42 43 44 45 46 46 47 47
16 16 17 17 17 18 18 19 21 23 24 25 26 27 28 28 28 29 29 29 30 31 32 33 34 35 36 37 38 38 39 41 42 43 44 45 46 46 48 49 49 50 51
17 17 18 18 17 17 18 19 21 23 24 25 26 27 28 29 29 30 30 30 30 31 33 34 35 36 36 37 38 40 41 42 44 44 45 47 48 50 50 51 52 53 53
Wind_Direction
251 255 254 255 254 246 240 234 237 234 227 222 205 188 174 148 126 133 239 299 319 304 290 292 310 320 318 309 313 294 279 271 256 253 264 271 264 263 264 266 275 278 273
253 257 258 253 250 248 244 241 236 232 226 228 228 210 190 175 125 116 271 283 312 310 299 305 325 330 312 297 298 301 289 277 255 253 264 265 264 262 262 270 274 281 281
253 256 254 251 248 246 246 246 242 242 231 235 234 231 218 218 246 266 283 302 304 299 309 316 327 327 318 312 314 293 286 278 264 259 266 266 262 258 265 277 276 279 284
255 255 253 250 248 246 247 248 246 246 237 238 237 240 245 253 261 277 284 294 305 315 327 321 315 330 339 336 334 327 303 298 286 269 276 270 258 259 272 284 285 285 286
253 253 251 249 247 245 242 244 245 245 241 240 241 245 250 257 263 269 280 289 289 292 319 337 340 348 351 358 0 4 1 327 307 286 293 280 264 264 274 287 289 290 288
251 250 248 247 244 242 241 242 244 243 244 242 242 246 251 257 257 257 269 276 274 277 302 321 328 338 348 350 343 340 350 343 340 310 310 305 278 275 279 291 298 294 292
248 245 246 244 241 240 240 241 244 245 247 243 243 246 252 258 255 256 264 272 278 277 282 298 304 311 326 328 323 322 326 324 328 330 329 326 301 292 292 294 298 298 291
247 241 241 242 241 239 238 240 242 243 242 242 244 245 248 251 254 255 260 269 275 270 273 278 281 285 303 310 298 300 310 314 313 314 318 317 299 294 293 294 297 298 294
244 242 237 238 239 238 240 239 241 240 241 243 246 248 249 249 254 254 261 268 266 267 274 284 288 279 278 287 289 287 292 297 302 305 306 312 310 302 297 297 297 296 293
242 242 239 238 238 240 241 240 239 241 243 244 247 249 250 252 254 256 264 271 272 269 271 275 278 273 270 275 283 286 289 289 295 298 301 304 306 302 299 298 298 296 293
242 240 238 236 238 240 240 240 240 243 245 246 247 248 249 253 257 261 265 268 270 270 270 270 272 272 270 273 278 280 284 286 288 292 295 297 298 299 300 299 298 295 293
240 238 239 237 238 238 239 241 243 243 245 247 248 247 249 254 258 262 265 268 270 270 272 274 275 274 271 274 276 279 281 283 285 287 289 291 293 295 296 295 294 293 293
242 240 240 241 239 238 239 242 245 245 246 247 249 249 250 254 257 260 263 267 269 271 272 274 274 275 275 275 276 277 277 279 282 284 286 287 289 289 290 291 292 291 291
246 244 242 242 240 242 243 244 245 246 247 249 250 251 252 255 256 260 263 265 266 269 270 271 273 273 274 274 274 276 278 280 282 283 284 285 286 286 286 287 288 289 289
247 247 246 244 243 244 246 245 246 246 249 251 253 253 253 254 256 261 265 266 267 269 268 269 271 272 274 273 274 274 277 279 280 283 283 284 284 284 284 284 286 287 288
250 249 249 248 247 246 247 245 246 249 252 255 256 256 258 256 258 261 264 265 267 268 269 269 270 272 274 274 274 275 276 277 280 281 281 282 283 284 284 285 285 286 286
254 253 250 247 247 247 247 246 246 250 253 257 259 259 259 260 261 263 265 266 267 268 269 271 272 273 274 276 276 276 277 278 279 280 281 282 284 284 284 285 285 285 285
260 255 251 248 248 248 249 250 250 252 255 257 259 260 262 264 264 266 267 268 269 271 272 272 272 273 276 279 279 279 280 279 279 279 281 282 283 284 285 285 286 285 285
261 260 255 251 251 252 252 251 252 254 256 257 258 261 265 264 266 268 269 269 270 272 274 273 273 274 275 278 280 280 281 282 282 281 282 283 284 285 285 285 286 285 286
270 266 258 255 254 254 255 254 255 257 258 260 261 263 267 269 269 270 271 270 270 272 274 274 274 276 278 279 280 280 281 283 283 283 283 283 284 285 285 285 286 286 286
274 270 268 261 258 259 259 259 258 259 261 263 265 266 267 269 269 270 272 271 271 272 273 274 274 276 278 280 280 280 280 281 283 283 284 285 286 285 285 286 286 286 285
279 274 274 269 265 264 262 261 261 262 264 266 267 269 268 269 270 272 273 272 272 272 272 275 275 277 278 280 281 281 280 281 282 283 285 286 286 286 286 286 286 286 286
286 281 277 273 269 267 263 261 261 263 266 267 270 273 273 273 273 274 275 274 274 275 275 276 277 278 279 280 282 282 282 282 283 285 286 287 287 288 288 287 287 287 287
285 282 280 276 273 271 269 264 263 265 268 271 273 276 278 278 278 277 278 277 276 276 277 279 279 280 281 282 282 283 284 284 284 286 287 287 287 288 288 288 287 287 287
291 289 286 282 279 276 272 270 269 268 271 273 275 276 278 277 278 279 279 280 280 280 281 281 282 283 283 283 282 284 285 285 285 286 287 288 288 288 288 288 288 288 288
295 293 290 287 284 283 280 278 276 274 275 275 275 277 279 280 281 282 282 283 283 284 284 283 282 282 283 283 284 285 286 286 287 287 288 288 288 288 288 289 289 289 289
Height
5897 5898 5898 5899 5900 5900 5900 5901 5901 5902 5902 5902 5902 5902 5903 5903 5904 5904 5904 5904 5904 5904 5904 5904 5904 5904 5904 5904 5904 5905 5905 5905 5906 5906 5907 5907 5907 5907 5907 5908 5908 5908 5908
5896 5896 5897 5898 5899 5899 5900 5901 5901 5902 5902 5902 5903 5903 5903 5903 5904 5904 5904 5904 5904 5904 5904 5904 5904 5904 5904 5904 5904 5904 5904 5905 5905 5905 5906 5906 5906 5906 5906 5907 5907 5907 5907
5894 5895 5896 5897 5898 5899 5900 5900 5901 5901 5902 5902 5903 5903 5903 5904 5904 5904 5904 5904 5904 5904 5904 5904 5904 5904 5904 5904 5904 5904 5904 5904 5904 5904 5905 5905 5905 5906 5906 5906 5906 5906 5906
5892 5893 5895 5896 5897 5898 5899 5900 5900 5901 5902 5902 5903 5903 5903 5903 5904 5904 5904 5904 5904 5904 5904 5904 5904 5904 5904 5904 5903 5903 5903 5903 5904 5904 5904 5904 5904 5905 5905 5905 5905 5905 5905
5890 5891 5893 5894 5895 5896 5898 5899 5900 5900 5901 5901 5902 5902 5903 5903 5903 5903 5904 5904 5904 5903 5904 5903 5904 5904 5903 5903 5903 5903 5903 5903 5903 5903 5903 5903 5903 5904 5904 5904 5904 5904 5904
5888 5889 5890 5892 5893 5895 5896 5897 5898 5899 5900 5900 5901 5901 5902 5902 5902 5903 5903 5903 5903 5903 5903 5903 5903 5903 5903 5903 5903 5903 5903 5903 5902 5902 5902 5902 5902 5903 5903 5903 5903 5903 5903
5885 5886 5888 5889 5891 5893 5894 5896 5897 5898 5899 5899 5900 5900 5901 5901 5902 5902 5902 5902 5902 5903 5903 5902 5902 5903 5903 5903 5902 5902 5902 5902 5902 5902 5902 5901 5901 5902 5902 5902 5902 5901 5901
5881 5883 5885 5887 5888 5890 5892 5894 5895 5896 5897 5898 5899 5899 5900 5901 5901 5901 5901 5901 5901 5902 5902 5902 5902 5902 5902 5902 5902 5902 5901 5901 5901 5901 5901 5901 5900 5901 5900 5900 5900 5900 5899
5878 5880 5882 5884 5886 5887 5889 5891 5892 5894 5895 5896 5897 5898 5898 5899 5899 5900 5900 5900 5900 5900 5900 5901 5901 5901 5901 5901 5901 5901 5900 5900 5900 5900 5900 5899 5899 5899 5899 5898 5898 5898 5897
5875 5876 5878 5880 5883 5885 5886 5888 5890 5891 5892 5893 5894 5895 5896 5897 5897 5898 5898 5898 5898 5898 5899 5899 5899 5899 5899 5899 5899 5899 5899 5899 5899 5898 5898 5898 5897 5897 5896 5896 5896 5895 5895
5871 5873 5875 5877 5879 5881 5883 5885 5887 5888 5889 5890 5891 5892 5893 5894 5895 5895 5896 5896 5896 5896 5896 5897 5897 5897 5897 5897 5897 5897 5897 5897 5897 5896 5896 5895 5895 5894 5894 5893 5893 5892 5892
5868 5869 5871 5873 5875 5878 5880 5882 5883 5885 5886 5887 5888 5889 5890 5891 5892 5892 5892 5893 5893 5894 5894 5894 5894 5895 5895 5895 5895 5894 5894 5894 5894 5893 5893 5893 5892 5891 5891 5890 5889 5889 5888
5864 5866 5868 5870 5872 5874 5876 5878 5879 5881 5882 5884 5885 5886 5887 5888 5888 5889 5889 5889 5890 5890 5891 5891 5891 5891 5891 5891 5891 5891 5891 5891 5890 5890 5890 5889 5888 5888 5887 5886 5885 5885 5884
5860 5862 5864 5866 5868 5870 5871 5873 5875 5877 5878 5880 5881 5882 5883 5884 5885 5885 5886 5886 5886 5887 5887 5887 5887 5887 5887 5887 5887 5887 5887 5886 5886 5886 5885 5885 5884 5883 5882 5881 5881 5880 5878
5857 5859 5860 5862 5864 5866 5867 5869 5871 5873 5874 5875 5876 5877 5878 5879 5880 5881 5881 5881 5882 5882 5883 5883 5883 5883 5882 5883 5882 5882 5882 5881 5880 5880 5880 5879 5878 5877 5877 5876 5875 5874 5872
5853 5855 5856 5858 5859 5861 5863 5865 5866 5868 5870 5871 5872 5873 5873 5874 5875 5876 5876 5876 5876 5877 5877 5878 5878 5878 5877 5877 5877 5876 5876 5876 5875 5875 5874 5873 5872 5871 5870 5869 5868 5867 5866
5849 5851 5852 5853 5855 5856 5858 5860 5862 5863 5865 5866 5867 5868 5869 5869 5870 5871 5871 5871 5871 5871 5872 5872 5872 5872 5871 5871 5871 5870 5870 5870 5869 5868 5867 5866 5865 5864 5863 5862 5861 5859 5858
5846 5847 5848 5850 5851 5852 5854 5856 5857 5859 5860 5861 5862 5863 5863 5864 5865 5865 5865 5865 5865 5865 5866 5866 5866 5866 5865 5865 5864 5863 5863 5863 5862 5861 5860 5859 5858 5857 5855 5854 5853 5851 5850
5843 5844 5845 5846 5847 5848 5850 5851 5853 5854 5855 5856 5857 5858 5858 5858 5858 5859 5859 5859 5859 5859 5859 5859 5859 5859 5859 5858 5857 5856 5855 5855 5854 5854 5853 5851 5850 5849 5847 5845 5844 5842 5841
5840 5840 5841 5842 5843 5844 5845 5847 5848 5849 5850 5851 5851 5852 5852 5852 5852 5852 5852 5852 5852 5852 5852 5852 5852 5852 5851 5850 5850 5849 5848 5847 5845 5845 5844 5843 5841 5840 5838 5836 5834 5832 5830
5837 5837 5837 5838 5839 5840 5841 5842 5843 5844 5845 5846 5846 5846 5846 5846 5846 5846 5845 5845 5845 5845 5844 5844 5844 5844 5843 5842 5841 5840 5839 5838 5836 5835 5834 5833 5831 5830 5828 5826 5824 5821 5819
5834 5834 5834 5834 5835 5836 5837 5837 5838 5839 5840 5840 5840 5840 5840 5840 5839 5839 5838 5837 5837 5837 5837 5836 5836 5836 5835 5833 5832 5830 5830 5829 5827 5826 5824 5822 5820 5818 5816 5814 5812 5809 5807
5831 5831 5830 5830 5830 5831 5831 5832 5833 5834 5835 5835 5835 5834 5833 5833 5833 5832 5831 5830 5829 5829 5829 5828 5827 5826 5825 5824 5822 5821 5819 5818 5817 5815 5813 5811 5809 5806 5804 5802 5799 5797 5794
5828 5827 5827 5826 5826 5826 5826 5827 5828 5828 5829 5829 5828 5828 5828 5827 5826 5825 5824 5823 5822 5821 5820 5820 5819 5817 5816 5814 5812 5811 5809 5807 5806 5804 5802 5800 5797 5795 5792 5788 5785 5783 5780
5824 5824 5823 5822 5822 5822 5822 5822 5822 5822 5822 5822 5822 5822 5821 5820 5819 5818 5817 5816 5814 5813 5812 5810 5809 5808 5806 5804 5802 5800 5798 5796 5794 5792 5789 5786 5784 5781 5778 5775 5771 5768 5764
5821 5820 5819 5818 5818 5817 5817 5817 5817 5816 5816 5816 5816 5815 5814 5813 5812 5810 5809 5808 5806 5805 5803 5801 5800 5798 5796 5794 5792 5790 5787 5784 5782 5779 5776 5773 5770 5767 5764 5761 5756 5752 5749